Location: Handeloh
(53.2500°N, 9.8330°E)
Time: 09:11:34
(UTC+01:00)

Vanguard 2 Rocket - Visible Passes

Search period start: 12 November 2019 00:00
Search period end: 22 November 2019 00:00
Orbit: 554 x 3326 km, 32.9° (Epoch: 11 November)

Date Brightness Start Highest point End Pass type
(mag) Time Alt. Az. Time Alt. Az. Time Alt. Az.
12 Nov 9.3 04:03:47 15° S 04:06:04 16° SSE 04:11:45 10° ESE visible
12 Nov 9.5 06:11:39 10° SW 06:18:22 23° S 06:28:04 10° SE visible
13 Nov 9.7 03:07:44 11° SE 03:07:44 11° SE 03:08:44 10° SE visible
13 Nov 9.3 05:13:33 11° SW 05:18:45 21° S 05:26:38 10° SE visible
14 Nov 9.2 04:17:28 15° S 04:19:26 17° SSE 04:25:06 10° SE visible
14 Nov 9.5 06:25:54 10° SW 06:31:54 20° S 06:40:08 10° SSE visible
15 Nov 9.5 03:21:24 12° SSE 03:21:24 12° SSE 03:23:09 10° SE visible
15 Nov 9.3 05:27:14 10° SW 05:32:17 18° S 05:39:08 10° SE visible
16 Nov 9.1 04:31:08 15° S 04:32:55 16° S 04:38:01 10° SE visible
16 Nov 9.6 06:40:48 10° SW 06:45:27 15° SSW 06:51:22 10° SSE visible
17 Nov 9.5 03:35:04 12° SSE 03:35:04 12° SSE 03:36:38 10° SE visible
17 Nov 9.4 05:41:50 10° SW 05:45:52 15° S 05:50:59 10° SSE visible
18 Nov 9.2 04:44:49 12° SSW 04:46:29 13° S 04:50:20 10° SSE visible
19 Nov 9.5 03:48:45 11° SSE 03:48:45 11° SSE 03:49:18 10° SSE visible
19 Nov 9.5 05:58:27 10° SSW 05:59:30 10° S 06:00:37 10° S visible
